Overview Statistics Trail Chart Weather Telemetry Raw packets
 

This is the latest recevied weather packets stored in our database for station/object PY5TG-13. If no packets are shown the sender has not sent any weather packets the latest 10 day(s).

<< 49 50 51 52 53 54 55 >>
Time Temp. Humidity Pressure Rain* Wind** Luminosity Snow
1788024067 27.78° C 68% 1005.4 hPa 0 mm - 202 W/m² -
1788024003 27.78° C 67% 1005.5 hPa 0 mm - 145 W/m² -
1788023407 27.22° C - - 0 mm - - -
1788022808 27.22° C - - 0 mm - - -
1788022212 27.78° C 65% 1005.6 hPa 0 mm - 118 W/m² -
1788021667 28.33° C 65% 1005.5 hPa 0 mm - 149 W/m² -
1788021603 28.89° C 65% 1005.6 hPa 0 mm - 234 W/m² -
1788021007 29.44° C 64% 1005.2 hPa 0 mm - 328 W/m² -
1788020407 28.33° C 65% 1006 hPa 0 mm - 193 W/m² -
1788019808 28.89° C 64% 1006 hPa 0 mm - 366 W/m² -
1788019208 28.89° C 63% 1006.2 hPa 0 mm - 326 W/m² -
1788018667 28.89° C 64% 1006.4 hPa 0 mm - 282 W/m² -
1788018603 28.89° C 64% 1006.2 hPa 0 mm - 339 W/m² -
1788018007 28.33° C 65% 1006.5 hPa 0 mm - 335 W/m² -
1788017408 28.33° C 64% 1006.4 hPa 0 mm - 314 W/m² -
1788016808 28.33° C 66% 1006.6 hPa 0 mm - 306 W/m² -
1788016213 27.78° C 66% 1006.7 hPa 0 mm - 323 W/m² -
1788015608 28.89° C 64% 1006.7 hPa 0 mm - 349 W/m² -
1788015007 27.78° C 67% 1007.1 hPa 0 mm - 332 W/m² -
1788014408 27.78° C 66% 1007 hPa 0 mm - 331 W/m² -
1788013809 27.78° C 67% 1007.3 hPa 0 mm - 312 W/m² -
1788013267 27.22° C 67% 1007.4 hPa 0 mm - 329 W/m² -
1788013203 27.22° C 69% 1007.7 hPa 0 mm - 300 W/m² -
1788012607 26.67° C 69% 1007.8 hPa 0 mm - 228 W/m² -
1788012007 26.67° C 70% 1008 hPa 0 mm - 231 W/m² -

* Rain latest hour (hover to see other rain measurements)
** Current wind speed in m/s (hover to see current wind gust speed)